Theta_e
318 318 319 319 319 319 319 318 319 320 320 321 321 321 321 321 320 319 311 312 316 331 326 317 317 317 318 317 320 321 312 309 312 313 316 320 318 330 333 333 332 337 338 345 351
319 319 319 319 319 319 318 319 319 320 320 321 321 320 321 321 320 318 319 328 330 331 315 314 313 315 313 315 317 316 311 311 317 319 318 320 319 321 327 328 328 331 338 346 348
318 318 319 319 319 319 319 319 319 320 320 320 320 321 321 321 318 314 335 328 331 326 317 315 315 315 311 314 314 314 310 315 317 320 320 319 319 321 320 319 322 320 324 329 341
316 317 318 318 319 319 319 320 320 320 321 320 320 321 321 322 304 318 339 336 332 323 317 314 313 311 309 309 313 309 314 315 318 320 319 318 322 319 320 321 325 325 324 325 326
317 316 316 317 318 319 319 320 320 320 320 319 320 321 321 315 312 328 335 332 322 318 316 312 311 311 308 309 312 310 312 315 317 318 319 319 318 319 320 323 324 325 325 323 323
317 316 315 316 317 318 319 319 319 319 319 319 321 320 319 308 322 326 322 319 317 315 314 314 313 315 310 310 309 311 311 313 315 317 316 316 317 318 320 323 323 324 323 326 329
317 316 316 316 316 317 318 317 317 318 318 319 320 320 316 312 323 324 318 317 317 315 312 314 315 312 313 310 313 311 307 310 312 315 313 315 312 314 320 322 321 323 329 330 332
317 316 316 316 315 316 317 316 316 317 318 320 320 321 313 322 327 322 322 318 318 318 317 317 316 314 313 313 310 308 308 304 310 312 313 313 306 314 318 320 319 321 326 331 332
316 315 316 316 315 315 316 316 317 318 319 320 322 318 310 318 317 318 321 314 316 317 317 315 315 311 311 308 305 306 303 303 306 312 310 311 307 316 318 318 319 323 329 330 331
316 315 315 315 315 314 314 317 318 319 320 321 319 314 314 311 316 315 319 316 313 314 312 312 312 308 308 306 301 302 302 303 304 309 309 310 311 317 320 315 322 328 328 327 325
316 315 314 314 314 313 315 320 318 316 318 312 313 311 312 317 319 314 316 314 313 311 306 309 305 303 304 307 306 305 303 302 306 308 309 311 313 317 322 323 324 323 322 320 318
315 315 314 313 313 313 319 316 316 317 309 314 314 314 316 317 310 312 316 310 309 306 307 305 302 306 306 306 304 304 303 303 306 307 311 311 312 316 314 316 320 320 320 318 315
313 313 313 312 312 315 319 317 321 320 311 310 313 312 313 315 308 309 313 311 308 305 306 304 306 306 305 305 302 303 302 302 301 306 311 311 309 310 309 312 315 316 315 315 314
313 313 312 310 312 319 316 319 321 320 306 304 308 312 313 313 307 312 314 311 309 305 305 305 308 306 306 304 305 302 305 304 303 303 299 308 299 307 306 306 309 311 311 311 311
312 313 311 308 318 315 319 322 322 319 295 306 308 316 311 308 310 310 315 312 306 306 308 303 303 304 303 303 306 304 306 304 304 303 302 302 299 305 307 300 302 308 309 309 308
311 311 310 314 317 317 321 322 320 304 294 304 307 305 306 307 307 311 311 314 312 307 307 306 308 306 305 305 305 307 305 305 305 303 296 301 300 303 306 306 298 302 307 308 309
311 309 310 315 314 319 323 318 303 298 309 303 302 305 305 304 305 307 306 307 305 301 301 304 304 307 308 303 307 305 303 296 295 295 294 303 300 301 304 306 300 298 302 305 307
308 307 310 317 320 319 322 308 296 303 305 306 305 304 302 304 304 305 305 303 307 305 303 299 297 304 307 304 302 303 303 296 289 291 295 302 296 302 305 305 303 300 300 301 302
306 320 324 323 321 321 314 299 300 305 306 304 304 301 301 303 304 305 304 303 305 307 301 299 298 306 305 306 304 302 299 304 297 297 293 299 300 303 304 302 300 299 300 301 305
311 316 318 320 325 323 308 298 302 310 308 307 301 303 300 302 302 303 304 306 304 307 309 304 298 302 304 306 306 304 305 297 299 290 288 295 296 301 302 302 303 301 304 305 306
315 315 318 323 324 314 302 302 304 309 309 305 304 302 303 302 303 303 302 305 305 305 309 307 303 300 303 301 301 302 301 301 301 297 291 289 296 304 306 306 305 304 304 306 305
313 310 320 323 311 312 306 304 302 307 309 308 308 306 304 304 303 303 302 305 307 308 303 307 305 298 298 303 304 303 301 302 297 295 297 296 295 305 308 308 305 304 305 305 305
307 311 323 321 306 306 308 305 307 307 307 306 306 307 308 305 302 304 304 305 307 307 305 307 301 295 297 301 304 300 301 302 301 302 296 294 296 304 305 304 305 305 305 304 304
307 306 314 318 314 309 306 304 304 307 307 308 307 309 307 305 308 304 304 304 306 306 303 307 303 298 293 296 301 298 299 300 300 298 296 296 297 300 302 303 304 305 304 303 303
307 304 304 305 306 307 308 306 303 303 307 309 307 307 306 303 303 303 305 304 306 306 307 308 301 300 299 298 298 297 297 297 297 298 294 297 296 300 304 304 304 304 303 302 302
304 302 307 302 304 306 302 305 304 304 305 306 306 306 307 304 304 302 304 305 304 308 307 307 302 301 297 298 298 296 297 297 296 297 297 297 297 304 306 304 303 302 302 300 301
307 308 304 302 303 304 306 304 304 306 307 308 308 307 305 306 309 311 312 311 310 307 307 305 303 298 293 297 296 293 297 297 298 299 298 295 301 304 302 302 302 302 300 300 300
Wind_Speed
11 10 9 9 9 9 9 9 9 9 9 9 8 8 9 10 14 8 4 4 1 6 6 4 6 6 8 9 8 6 11 12 9 9 3 2 5 8 2 3 3 5 9 10 12
12 11 11 10 9 9 9 9 9 9 9 9 9 8 8 9 9 6 6 3 3 4 6 7 6 7 11 12 8 11 12 13 6 2 2 3 3 6 3 6 8 9 11 10 10
13 12 11 10 10 9 9 9 8 8 9 9 9 8 9 11 8 5 5 7 8 9 2 3 3 8 11 9 10 15 14 5 6 3 3 4 6 2 1 10 10 11 14 13 2
15 13 12 11 10 9 9 9 9 9 9 9 9 9 9 7 1 6 6 8 5 8 6 5 7 9 9 11 7 12 16 6 8 6 5 7 7 8 3 3 6 8 8 8 8
16 15 14 12 11 10 10 9 9 9 9 9 9 9 7 7 9 6 5 8 8 5 5 4 7 5 8 8 9 13 6 10 9 7 8 3 9 12 9 10 9 3 8 12 16
17 16 15 14 12 11 10 9 8 8 8 8 9 10 7 5 4 6 6 8 4 5 5 4 1 3 3 4 11 4 9 10 9 10 5 11 12 6 11 13 12 10 3 12 15
18 18 17 15 14 12 10 10 9 8 7 7 7 7 6 8 2 5 6 3 2 1 5 2 1 7 2 7 1 4 11 12 12 10 4 7 10 16 11 8 14 13 16 14 16
19 18 18 17 15 14 13 12 10 7 5 6 6 6 3 3 1 6 7 5 3 2 1 1 4 3 5 2 6 10 8 12 11 9 6 10 4 12 11 11 14 10 11 14 18
20 19 19 18 16 15 14 12 1 6 5 6 7 5 7 5 5 3 5 3 6 5 4 1 4 3 6 11 9 8 6 8 10 7 1 9 4 14 10 12 12 7 13 13 17
22 21 19 18 16 13 12 5 5 9 6 5 4 6 5 4 3 1 3 3 2 8 7 5 5 8 7 9 6 6 6 5 5 9 1 11 10 12 13 2 14 13 13 15 17
23 22 21 19 16 12 7 5 7 7 8 7 5 5 1 1 3 6 5 6 6 6 9 5 9 8 3 1 8 7 6 5 3 6 8 11 12 13 12 13 13 12 13 15 18
24 24 23 21 18 10 7 5 5 6 5 4 5 7 6 3 5 6 5 7 7 5 4 8 10 3 4 5 7 11 10 11 6 4 10 12 17 18 17 15 10 13 12 14 17
25 24 24 23 18 4 4 2 1 4 6 4 3 4 2 7 2 6 8 2 3 4 3 6 8 2 6 8 9 9 11 6 8 9 11 17 12 12 12 12 12 13 13 14 16
25 25 23 26 4 2 5 2 5 3 6 8 8 6 7 4 4 1 2 4 5 3 2 3 4 4 7 4 7 5 1 3 6 12 11 15 2 8 8 11 10 11 11 13 14
25 25 23 11 7 5 6 5 4 5 6 9 9 5 3 6 9 5 0 6 2 3 7 8 2 2 2 5 4 8 2 3 4 10 7 15 11 13 10 5 6 7 10 11 11
28 26 21 5 4 2 4 3 5 8 4 9 8 10 11 7 4 7 4 1 2 3 2 5 2 3 4 1 2 4 6 7 8 11 12 4 8 12 9 7 6 3 7 9 11
29 27 10 4 2 2 2 5 6 7 4 9 10 9 13 8 7 5 5 4 3 5 4 5 3 4 4 7 6 7 8 10 9 9 7 4 8 10 6 8 8 4 4 8 9
32 24 5 5 4 5 6 6 7 1 5 4 3 7 10 10 4 6 7 7 3 4 2 4 9 1 5 5 9 5 7 9 10 10 5 4 5 8 7 8 10 6 1 3 6
30 2 3 3 5 5 8 8 3 2 3 2 6 10 9 8 4 8 5 1 2 1 5 4 3 4 4 3 5 3 8 8 10 7 10 3 7 7 10 10 9 6 3 2 4
8 4 5 4 1 6 6 4 4 2 4 4 7 5 10 11 10 8 9 3 4 1 2 3 6 2 2 4 3 6 4 6 8 7 10 6 3 1 15 14 11 10 8 3 2
5 4 6 4 5 6 7 3 3 2 4 4 3 4 2 5 7 6 4 6 1 3 1 1 4 6 6 1 8 4 9 4 6 6 9 10 4 8 9 13 11 7 3 2 5
5 3 5 3 6 2 4 1 2 4 3 4 2 2 3 3 5 5 6 3 1 1 3 3 5 7 5 4 2 2 5 6 6 8 4 8 4 4 8 10 6 4 1 5 6
7 4 2 3 5 6 2 4 3 4 1 4 4 1 2 4 3 4 4 3 2 1 3 4 3 6 5 8 6 4 2 1 2 4 10 9 2 6 8 9 6 1 4 6 7
5 3 3 2 2 5 3 3 4 1 2 2 2 2 6 5 1 5 6 3 3 4 4 2 3 7 7 6 5 4 4 2 5 3 10 7 6 9 9 9 7 0 5 6 7
2 4 3 2 4 6 2 3 5 5 2 4 4 7 5 3 5 5 5 8 6 6 2 3 7 5 2 2 4 6 6 6 9 6 7 4 4 3 8 6 2 3 5 7 8
5 4 1 5 6 7 3 5 6 4 3 8 6 6 5 4 4 4 6 6 6 7 4 3 3 5 7 4 6 8 5 4 3 2 1 2 3 4 7 3 1 4 7 8 9
2 1 5 1 4 5 2 3 3 3 2 2 3 6 6 6 6 7 6 5 1 4 7 5 2 3 5 1 5 9 7 6 1 2 3 5 10 6 5 1 4 6 4 7 8
Wind_Direction
354 345 339 333 327 322 319 316 315 314 309 306 309 311 311 305 286 219 237 24 348 164 284 237 216 209 211 221 231 246 252 252 228 228 126 247 342 69 126 147 82 91 71 102 131
353 347 342 337 330 323 318 314 313 310 305 305 308 307 304 309 267 208 102 140 168 310 233 217 199 195 204 218 206 226 236 244 28 32 251 194 304 16 198 147 126 148 109 111 144
359 353 346 340 331 322 315 309 306 303 302 303 305 306 304 299 249 56 99 195 229 261 254 238 233 225 218 221 200 219 250 223 173 212 302 258 171 14 36 82 53 40 25 34 3
2 356 350 343 335 326 315 309 305 302 302 303 303 301 301 250 81 46 14 185 214 259 227 194 204 203 217 206 191 241 240 276 196 174 228 229 246 222 229 5 358 355 16 58 353
360 356 350 343 336 329 321 312 305 299 296 296 298 302 270 208 85 86 109 152 191 234 235 209 207 208 209 209 204 231 193 231 244 229 245 254 233 252 262 262 280 88 345 36 42
355 351 349 343 336 328 318 310 304 292 285 290 298 298 253 153 89 144 144 170 215 223 198 215 138 314 155 202 226 199 248 236 240 242 230 242 245 229 254 267 248 227 93 58 55
352 348 345 342 335 327 317 305 293 285 280 279 287 291 256 72 123 151 191 246 185 250 152 147 22 257 178 167 144 185 224 217 225 235 243 255 248 232 275 278 260 242 88 69 68
350 347 342 339 334 327 322 312 284 254 247 257 272 272 52 98 210 238 198 178 188 174 63 49 259 298 271 80 198 216 237 213 163 207 192 225 245 22 340 278 238 228 68 60 54
347 346 340 337 333 329 323 320 356 185 195 208 238 272 104 136 208 90 210 107 123 142 133 9 243 323 191 214 195 203 210 225 141 208 279 236 18 5 335 251 262 52 67 63 59
346 345 340 334 329 326 316 319 128 167 191 220 254 232 171 73 73 105 151 212 142 144 165 217 231 240 210 227 238 164 196 192 175 146 238 82 52 23 8 139 90 74 75 71 63
345 342 339 334 328 323 278 212 212 177 207 299 353 318 85 356 200 188 175 189 183 224 240 195 263 225 280 346 322 293 277 263 208 90 92 88 70 48 46 75 79 89 87 75 63
343 340 338 333 325 317 259 278 40 4 286 207 262 269 271 286 203 174 195 222 209 225 194 214 231 29 226 209 259 240 236 233 229 169 132 113 85 63 48 39 81 95 88 86 81
339 338 336 333 323 250 258 25 69 323 261 144 194 235 171 204 127 126 210 202 241 200 197 296 56 169 219 219 232 226 254 260 277 165 141 138 108 101 77 70 82 82 82 71 70
334 336 335 330 287 122 180 97 258 274 250 137 186 158 174 228 142 22 227 294 195 23 202 45 72 161 190 177 248 194 125 238 183 204 213 211 216 111 102 82 71 77 67 69 66
330 331 330 321 324 232 74 332 145 217 209 143 145 97 177 236 131 127 163 225 356 70 256 90 104 209 225 29 297 55 239 275 247 248 279 186 249 117 144 108 82 72 81 73 61
326 328 328 186 231 11 309 176 234 231 174 157 162 188 182 183 138 136 187 150 354 277 290 95 99 357 27 28 337 134 221 218 240 260 245 222 262 152 168 160 127 60 56 44 42
328 325 306 301 63 349 272 217 223 258 133 164 183 189 198 169 163 209 183 159 304 244 173 172 137 111 352 247 185 230 244 264 241 222 249 41 273 51 110 120 132 116 53 23 16
327 318 161 284 295 302 216 215 236 44 195 92 206 187 203 175 174 171 192 171 127 259 242 284 172 12 3 342 327 319 322 287 287 291 331 120 269 90 124 125 129 133 100 5 13
313 314 241 12 287 247 228 217 241 226 46 224 173 202 182 187 231 197 227 197 85 281 290 244 152 131 62 13 295 130 253 15 290 235 265 115 110 163 163 153 147 158 183 280 10
317 299 49 357 275 243 231 265 250 236 318 227 236 255 208 187 203 219 186 120 130 348 314 83 279 151 88 251 161 286 26 245 213 276 273 162 254 280 184 177 172 172 184 142 24
280 254 44 314 264 219 231 222 249 281 287 263 210 177 228 181 236 206 172 120 192 111 194 276 271 131 224 319 333 229 230 227 301 306 296 296 76 14 171 177 176 153 124 54 13
306 223 38 289 218 245 217 168 356 266 236 229 262 116 180 166 183 199 190 21 61 228 225 73 302 292 354 121 336 348 321 279 273 263 241 304 317 3 128 136 152 133 132 36 8
331 311 94 279 244 200 147 246 256 264 219 217 179 264 183 147 161 167 148 80 129 207 180 156 178 276 179 182 196 260 64 64 314 281 269 291 9 121 131 152 167 224 32 8 0
301 292 124 162 26 318 307 233 221 185 226 274 135 172 163 165 191 167 153 107 110 96 35 282 224 274 281 10 340 229 230 258 279 264 281 275 104 163 180 186 180 218 13 3 354
353 64 20 337 122 323 265 307 258 202 216 213 185 235 189 184 189 189 149 147 146 148 146 276 269 268 286 277 264 289 273 275 263 296 274 351 320 92 170 181 93 354 1 349 353
326 334 301 283 292 276 174 214 265 165 260 189 246 171 183 207 214 208 192 198 193 175 179 156 262 272 257 223 262 263 249 256 261 233 181 260 193 98 103 129 291 353 346 343 345
52 149 281 204 230 253 226 296 288 222 123 302 196 172 140 78 69 54 48 56 77 215 182 202 189 241 272 290 272 252 238 217 177 220 306 276 60 141 164 237 352 338 343 338 344